Location: Be?evci
(45.0991°N, 16.0587°E)
Time: 00:11:24
(UTC+00:00)

Daily predictions for brighter satellites

Satellite Brightness Start Highest point End
(mag) Time Altitude Azimuth Time Altitude Azimuth Time Altitude Azimuth
USA 229 DEB 4.5 02:06:54 45° E 02:06:54 45° E 02:12:02 10° NE
USA 229 4.5 02:06:59 45° E 02:06:59 45° E 02:12:08 10° NE
Cosmos 2082 Rocket 3.8 02:08:03 30° E 02:08:03 30° E 02:12:11 10° NE
Cosmos 1980 Rocket 3.5 02:14:47 37° ENE 02:14:47 37° ENE 02:19:36 10° ESE
NOSS 3-1 (A) 4.2 02:23:24 44° ENE 02:23:24 44° ENE 02:28:02 10° NE
ATLAS CENTAUR R/B 4.3 02:28:41 13° NE 02:28:41 13° NE 02:30:30 10° ENE
Cosmos 1833 Rocket 3.7 02:32:37 41° NNE 02:32:37 41° NNE 02:36:11 10° NNE
SL-16 R/B 4.5 02:38:46 10° N 02:43:05 22° NE 02:47:22 10° E
BREEZE-M DEB (TANK) 4.0 02:45:51 81° WNW 02:46:13 90° SSW 03:03:31 10° ESE
CZ-2C R/B 3.4 02:45:12 10° NNE 02:48:28 41° NNE 02:48:28 41° NNE
Cosmos 1048 Rocket 4.5 02:53:26 55° E 02:53:26 55° E 02:58:21 10° NNE
Lacrosse 5 3.7 02:57:41 22° N 02:57:41 22° N 03:01:26 10° NE
ALOS 2.9 03:03:06 10° NNE 03:07:42 54° E 03:08:40 45° SE
Okean 3 Rocket 4.5 03:06:05 10° N 03:13:14 22° SSE 03:14:50 10° SSE
NOSS 2-3 (D) 4.5 03:19:42 40° N 03:19:42 40° N 03:23:30 10° NNE
NOSS 3-1 (C) 3.8 03:19:38 42° NW 03:19:38 42° NW 03:25:43 10° NNE
PAYLOAD A 4.5 03:16:02 10° N 03:19:59 46° NNW 03:19:59 46° NNW
Cosmos 1484 Rocket 3.4 03:17:58 10° NNE 03:21:07 51° ENE 03:21:07 51° ENE
Cosmos 2278 3.5 03:21:44 40° NW 03:23:54 75° WSW 03:29:35 10° SSE
Cosmos 292 Rocket 3.6 03:24:33 76° SSW 03:24:33 76° SSW 03:29:02 10° SSE
Cosmos 220 Rocket 4.2 03:24:30 35° N 03:26:15 70° ENE 03:30:38 10° SSE
Cosmos 468 4.3 03:27:19 67° WSW 03:27:54 75° WNW 03:33:11 10° NNE
SJ-6F 4.5 03:24:49 10° NNE 03:28:59 77° ESE 03:29:31 64° SSE
USA 267 4.5 03:23:36 10° ENE 03:29:11 31° N 03:32:34 20° NW
Cosmos 1331 Rocket 4.1 03:24:43 10° NNW 03:29:56 71° ENE 03:35:04 10° SSE
X-37B 2.1 03:31:20 36° E 03:31:20 36° E 03:33:21 10° E
BREEZE-M DEB (TANK) 3.3 03:29:32 53° SW 03:30:42 77° SSE 03:33:46 10° ENE
COSMOS 2406 4.1 03:31:36 32° NW 03:31:36 32° NW 03:36:17 10° N
Meteor 2-15 4.3 03:27:37 26° SSW 03:31:19 78° W 03:37:29 10° N
CBERS 1 LM4 rocket 4.4 03:26:30 10° NNE 03:31:28 76° ESE 03:34:28 23° S
Cosmos 2221 3.7 03:30:26 10° SSE 03:34:34 43° E 03:38:44 10° NNE
Meteor 1-27 4.0 03:32:50 28° SSW 03:35:52 79° W 03:41:28 10° N
Cosmos 1932 4.3 03:32:30 29° NW 03:35:52 70° WSW 03:42:00 10° SSE
Cosmos 1745 Rocket 4.3 03:31:45 10° N 03:38:00 69° E 03:44:16 10° SSE
Cosmos 1869 3.1 03:38:25 78° NNW 03:38:25 78° NNW 03:42:13 10° N
Genesis I 3.3 03:40:11 62° N 03:40:11 62° N 03:43:40 10° NNE
H-2A R/B 1.9 03:36:07 10° SSE 03:40:29 82° WSW 03:44:48 10° NNW
SeaSat 1 2.4 03:35:56 10° SSE 03:40:45 55° WSW 03:41:24 51° W
Cosmos 2360 Rocket 4.2 03:37:30 10° N 03:42:16 27° NE 03:47:00 10° ESE
SL-08 ROCKET BODY 4.3 03:40:00 10° N 03:46:05 80° W 03:52:13 10° S
FENGYUN 3A 3.6 03:43:24 10° N 03:48:47 63° WNW 03:52:12 23° SSW
ISS -3.9 03:50:13 87° ENE 03:50:13 87° ENE 03:53:33 10° ENE
Cosmos 2082 Rocket 2.6 03:49:56 39° W 03:51:07 44° WNW 03:56:35 10° NNE
NOSS 2-2 (E) 3.8 03:50:33 29° S 03:52:00 50° ESE 03:55:39 10° NE
SL-08 R/B 4.4 03:46:55 10° NNW 03:53:04 68° W 03:59:09 10° S
USA 229 DEB 4.2 03:54:21 31° W 03:56:38 40° NW 04:03:08 10° NNE
USA 229 4.2 03:54:26 31° W 03:56:43 40° NW 04:03:14 10° NNE
Meteor 2-3 Rocket 4.2 03:52:54 10° NNW 03:58:06 38° W 04:03:20 10° SSW
Cosmos 1302 Rocket 4.4 03:52:59 10° NNW 03:58:14 65° ENE 04:03:28 10° SSE
Cosmos 1980 Rocket 2.6 03:56:42 31° WNW 03:58:20 37° WSW 04:03:30 10° S
SL-27 R/B 4.2 04:02:35 10° S 04:05:47 34° ESE 04:09:02 10° NE
Iridium 4 Rocket 3.9 04:03:36 25° SW 04:05:57 37° W 04:10:29 10° NNW
CZ-4B R/B 1.4 04:03:44 10° SSE 04:06:58 74° ENE 04:10:08 10° N
Cosmos 2322 Rocket 2.6 04:02:21 10° NNW 04:07:58 64° ENE 04:13:36 10° SE
ATLAS CENTAUR R/B 1.5 04:04:52 16° NNW 04:08:03 74° NE 04:12:19 10° SE
METEOR-M 4.2 04:05:59 10° N 04:11:12 54° WNW 04:16:22 10° SW
ADEOS 3.5 04:07:54 10° N 04:13:07 72° WNW 04:18:19 10° SSW
NOSS 3-1 (A) 4.2 04:10:50 25° WNW 04:13:14 34° NW 04:19:10 10° NNE
Cosmos 1833 Rocket 4.1 04:14:19 18° WNW 04:15:14 19° NW 04:19:08 10° N
Cosmos 1110 Rocket 4.3 04:10:55 10° NW 04:15:53 42° WSW 04:20:47 10° S
COSMO-SKYMED 1 2.4 04:12:12 10° S 04:16:32 77° WSW 04:20:55 10° NNW
Meteor 2-2 Rocket 4.3 04:12:15 10° SSW 04:18:11 78° WNW 04:24:14 10° N
CZ-4B R/B 3.5 04:14:29 10° NNE 04:18:49 68° ESE 04:23:17 10° S
Cosmos 2315 Rocket 4.3 04:14:34 10° S 04:20:45 71° E 04:26:56 10° NNE
CENTAUR R/B 4.4 04:13:47 10° NNW 04:20:59 37° NE 04:28:57 10° E
CSL-04 DEB 4.4 04:18:28 10° S 04:22:30 57° WSW 04:26:28 10° NNW
CZ-2C R/B 4.3 04:17:59 10° SE 04:23:02 37° ENE 04:28:09 10° N
Cosmos 1862 3.3 04:21:04 10° NNW 04:25:05 61° W 04:29:04 10° S
Cosmos 1743 Rocket 3.5 04:21:04 10° N 04:25:33 78° W 04:30:01 10° S
Cosmos 1805 Rocket 4.3 04:22:04 10° N 04:26:28 57° ENE 04:30:51 10° SSE
CZ-2C R/B 4.0 04:24:50 10° NNW 04:27:44 16° WNW 04:27:51 16° WNW
SL-16 R/B 2.1 04:22:08 10° NNW 04:27:48 74° WSW 04:33:26 10° SSE
ERS-2 2.7 04:25:14 10° SSE 04:28:48 59° ENE 04:32:23 10° N
CREW DRAGON DEMO-1 DEB 3.1 04:28:39 30° W 04:29:36 44° SW 04:32:21 10° SE
Meteor 1-31 Rocket 3.1 04:26:02 10° N 04:29:46 43° WNW 04:33:26 10° SW
Meteor 1-4 Rocket 2.5 04:27:41 10° SSW 04:31:25 68° WNW 04:35:07 10° N
Cosmos 2219 Rocket 4.3 04:29:00 10° N 04:33:43 26° NE 04:38:25 10° ESE
Cosmos 883 Rocket 4.4 04:29:16 10° SSW 04:35:28 75° W 04:41:39 10° N
SAR-Lupe-4 4.1 04:32:48 10° SSE 04:36:20 61° ENE 04:39:52 10° N
NOSS 2-2 (D) 3.0 04:34:43 12° SW 04:37:53 68° NW 04:41:39 10° NE
Cosmos 1606 2.7 04:35:53 10° S 04:39:45 87° E 04:43:40 10° N
CZ-3 R/B 4.3 04:37:57 10° SSW 04:41:25 12° S 04:44:00 10° SSE
Lacrosse 5 3.5 04:37:40 10° NW 04:41:55 26° NNE 04:46:10 10° ENE
ALOS 3.7 04:41:28 10° NNW 04:44:41 19° WNW 04:47:11 13° W
Lacrosse 4 Rocket 3.3 04:42:07 10° NNW 04:46:11 32° NE 04:50:10 10° ESE
Cosmos 1269 Rocket 4.3 04:44:06 10° SW 04:49:12 48° WNW 04:54:20 10° N
PSLV R/B 3.9 04:45:36 10° S 04:49:48 74° WSW 04:54:01 10° NNW
OE (NEXTSAT) 4.5 04:48:32 15° W 04:51:21 63° SSW 04:54:48 10° ESE
SAR-Lupe-1 4.0 04:50:49 10° S 04:54:23 78° WSW 04:57:59 10° NNW
deb Chang Zheng 4 3.7 04:54:17 10° N 04:58:24 50° WNW 05:02:32 10° SW
Cosmos 1689 Rocket 1.9 04:56:02 10° S 04:58:50 63° WSW 05:01:39 10° NNW
MOS 1 Rocket 4.0 04:58:34 10° SSW 05:02:10 26° W 05:05:49 10° NW
Cosmos 1500 Rocket 4.3 05:01:32 10° NNW 05:05:16 29° W 05:09:01 10° SSW
Cosmos 2074 Rocket 4.4 04:59:53 10° N 05:06:08 73° E 05:12:19 10° SSE
X-37B 0.8 05:03:39 10° W 05:06:47 60° SSW 05:09:54 10° ESE
H-2A R/B 3.4 05:05:56 10° N 05:09:30 35° WNW 05:13:05 10° SW
USA 267 4.1 05:05:09 10° E 05:11:16 44° NNE 05:17:24 10° NW
Cosmos 2221 3.9 05:09:13 10° WSW 05:12:20 19° WNW 05:15:29 10° NNW
Meteor 1-25 Rocket 4.3 05:06:43 10° N 05:12:21 85° E 05:17:55 10° S
Cosmos 2333 Rocket 3.1 05:08:03 10° NNW 05:13:43 55° ENE 05:19:22 10° SE
Sich 1 3.1 05:09:23 10° NNW 05:13:46 60° W 05:18:07 10° S
Iridium 51 4.4 05:09:32 10° N 05:13:50 61° W 05:17:42 10° S
H-2A R/B 4.0 05:07:50 10° WSW 05:16:16 23° SSW 05:19:35 10° SSE
